Weather History for Millington, TN

Change the Weather History Date:

Thursday, October 13, 2011

  Actual Average Record
Temperature  
Mean Temperature 69 °F -  
Max Temperature 78 °F 72 °F 90 °F (1999)
Min Temperature 60 °F 51 °F 30 °F (2006)
Cooling Degree Days 4    
Growing Degree Days 19 (Base 50)    
Moisture  
Dew Point 58 °F    
Average Humidity 75    
Maximum Humidity 100    
Minimum Humidity 41    
Precipitation  
Precipitation 0.00 in - - ()
Sea Level Pressure  
Sea Level Pressure 29.72 in    
Wind  
Wind Speed 7 mph (West)    
Max Wind Speed 18 mph    
Max Gust Speed -    
Visibility 10 miles    
Events Rain    
Averages and records for this station are not official NWS values.
T = Trace of Precipitation, MM = Missing Value Source: NWS Daily Summary

Daily Weather History Graph

Daily Weather History Graph

Search for Another Location

Airport:

Trip Planner

Search our weather history database for the weather conditions in past years. The results will help you decide how hot, cold, wet, or windy it might be!

Date:

Astronomy

Oct. 13, 2011 Rise Set
Actual Time 7:03 AM CDT 6:27 PM CDT
Civil Twilight 6:38 AM CDT 6:52 PM CDT
Nautical Twilight 6:08 AM CDT 7:22 PM CDT
Astronomical Twilight 5:39 AM CDT 7:51 PM CDT
Moon 7:09 PM CDT (10/13) 8:30 AM CDT (10/13)
Length of Visible Light 12h 14m
Length of Day
11h 23m
Full, 98% of the Moon is Illuminated
Oct 13
Full
Oct 19
Last Quarter
Oct 26
New
Nov 2
First Quarter
Nov 10
Full

Hourly Weather History & Observations

Time (CDT) Temp. Dew Point Humidity Pressure Visibility Wind Dir Wind Speed Gust Speed Precip Events Conditions
12:35 AM 64.4 °F 62.6 °F 94% 29.72 in 3.0 mi SW 4.6 mph - N/A   Overcast
12:55 AM 64.4 °F 62.6 °F 94% 29.71 in 6.0 mi Variable 4.6 mph - N/A   Overcast
1:15 AM 62.6 °F 62.6 °F 100% 29.71 in 9.0 mi Variable 4.6 mph - N/A   Overcast
1:35 AM 62.6 °F 62.6 °F 100% 29.70 in 10.0 mi SW 4.6 mph - N/A   Overcast
1:55 AM 62.6 °F 62.6 °F 100% 29.70 in 8.0 mi Variable 3.5 mph - N/A   Overcast
2:15 AM 64.4 °F 62.6 °F 94% 29.70 in 9.0 mi SW 4.6 mph - N/A   Overcast
2:35 AM 64.4 °F 62.6 °F 94% 29.69 in 10.0 mi WSW 5.8 mph - N/A   Overcast
2:55 AM 62.6 °F 62.6 °F 100% 29.68 in 10.0 mi Variable 5.8 mph - N/A   Overcast
3:15 AM 62.6 °F 62.6 °F 100% 29.67 in 10.0 mi Calm Calm - N/A   Mostly Cloudy
3:35 AM 62.6 °F 62.6 °F 100% 29.67 in 10.0 mi Calm Calm - N/A   Mostly Cloudy
3:55 AM 62.6 °F 62.6 °F 100% 29.68 in 6.0 mi WSW 6.9 mph - N/A   Overcast
4:15 AM 62.6 °F 62.6 °F 100% 29.68 in 10.0 mi Variable 3.5 mph - N/A   Overcast
4:35 AM 62.6 °F 62.6 °F 100% 29.69 in 8.0 mi WSW 4.6 mph - N/A   Overcast
4:55 AM 62.6 °F 60.8 °F 94% 29.69 in 10.0 mi SW 4.6 mph - N/A   Mostly Cloudy
5:15 AM 62.6 °F 60.8 °F 94% 29.68 in 10.0 mi Variable 3.5 mph - N/A   Mostly Cloudy
5:35 AM 62.6 °F 60.8 °F 94% 29.69 in 10.0 mi WSW 6.9 mph - N/A   Mostly Cloudy
5:55 AM 60.8 °F 60.8 °F 100% 29.69 in 8.0 mi SW 4.6 mph - N/A Rain Light Rain
6:15 AM 60.8 °F 60.8 °F 100% 29.70 in 10.0 mi West 4.6 mph - N/A Rain Light Rain
6:55 AM 60.8 °F 60.8 °F 100% 29.70 in 10.0 mi WSW 4.6 mph - N/A Rain Light Rain
7:35 AM 60.8 °F 60.8 °F 100% 29.71 in 10.0 mi West 8.1 mph - N/A   Scattered Clouds
7:55 AM 60.8 °F 60.8 °F 100% 29.71 in 10.0 mi West 5.8 mph - N/A   Scattered Clouds
8:35 AM 62.6 °F 60.8 °F 94% 29.72 in 10.0 mi West 8.1 mph - N/A   Scattered Clouds
8:55 AM 62.6 °F 60.8 °F 94% 29.73 in 10.0 mi West 8.1 mph - N/A   Mostly Cloudy
9:15 AM 64.4 °F 60.8 °F 88% 29.73 in 10.0 mi West 9.2 mph - N/A   Mostly Cloudy
9:35 AM 64.4 °F 60.8 °F 88% 29.73 in 10.0 mi West 6.9 mph - N/A   Mostly Cloudy
9:55 AM 66.2 °F 60.8 °F 83% 29.73 in 10.0 mi West 9.2 mph - N/A   Mostly Cloudy
10:15 AM 68.0 °F 60.8 °F 78% 29.74 in 10.0 mi West 9.2 mph - N/A   Mostly Cloudy
10:35 AM 69.8 °F 60.8 °F 73% 29.74 in 10.0 mi WNW 6.9 mph - N/A   Mostly Cloudy
10:55 AM 69.8 °F 60.8 °F 73% 29.73 in 10.0 mi NW 10.4 mph - N/A   Scattered Clouds
11:15 AM 71.6 °F 60.8 °F 69% 29.74 in 10.0 mi WNW 12.7 mph - N/A   Scattered Clouds
11:35 AM 71.6 °F 60.8 °F 69% 29.74 in 10.0 mi WNW 9.2 mph - N/A   Scattered Clouds
11:55 AM 71.6 °F 60.8 °F 69% 29.74 in 10.0 mi West 15.0 mph - N/A   Scattered Clouds
12:15 PM 71.6 °F 60.8 °F 69% 29.74 in 10.0 mi West 12.7 mph - N/A   Partly Cloudy
12:35 PM 73.4 °F 59.0 °F 61% 29.73 in 10.0 mi WNW 12.7 mph - N/A   Scattered Clouds
12:55 PM 73.4 °F 57.2 °F 57% 29.73 in 10.0 mi West 12.7 mph - N/A   Scattered Clouds
1:15 PM 75.2 °F 59.0 °F 57% 29.72 in 10.0 mi West 13.8 mph - N/A   Partly Cloudy
1:35 PM 75.2 °F 57.2 °F 53% 29.71 in 10.0 mi WNW 11.5 mph - N/A   Partly Cloudy
2:15 PM 75.2 °F 57.2 °F 53% 29.70 in 10.0 mi WNW 11.5 mph - N/A   Scattered Clouds
2:35 PM 75.2 °F 57.2 °F 53% 29.70 in 10.0 mi WNW 12.7 mph - N/A   Scattered Clouds
2:55 PM 77.0 °F 53.6 °F 44% 29.70 in 10.0 mi NW 17.3 mph - N/A   Partly Cloudy
3:15 PM 78.8 °F 53.6 °F 42% 29.70 in 10.0 mi WNW 17.3 mph - N/A   Partly Cloudy
3:35 PM 77.0 °F 51.8 °F 41% 29.70 in 10.0 mi West 15.0 mph - N/A   Partly Cloudy
3:55 PM 77.0 °F 51.8 °F 41% 29.71 in 10.0 mi WNW 15.0 mph - N/A   Partly Cloudy
4:15 PM 77.0 °F 51.8 °F 41% 29.71 in 10.0 mi WNW 12.7 mph - N/A   Partly Cloudy
4:35 PM 75.2 °F 51.8 °F 44% 29.71 in 10.0 mi West 18.4 mph - N/A   Partly Cloudy
4:55 PM 75.2 °F 51.8 °F 44% 29.71 in 10.0 mi West 13.8 mph - N/A   Partly Cloudy
5:15 PM 75.2 °F 51.8 °F 44% 29.72 in 10.0 mi West 12.7 mph - N/A   Partly Cloudy
5:35 PM 75.2 °F 51.8 °F 44% 29.72 in 10.0 mi West 10.4 mph - N/A   Partly Cloudy
5:55 PM 73.4 °F 51.8 °F 47% 29.73 in 10.0 mi West 6.9 mph - N/A   Partly Cloudy
6:15 PM 71.6 °F 51.8 °F 50% 29.73 in 10.0 mi West 4.6 mph - N/A   Partly Cloudy
6:35 PM 69.8 °F 51.8 °F 53% 29.73 in 10.0 mi West 4.6 mph - N/A   Partly Cloudy
7:15 PM 66.2 °F 53.6 °F 64% 29.75 in 10.0 mi West 4.6 mph - N/A   Partly Cloudy
7:35 PM 64.4 °F 53.6 °F 68% 29.76 in 10.0 mi West 3.5 mph - N/A   Partly Cloudy
7:55 PM 64.4 °F 53.6 °F 68% 29.77 in 10.0 mi West 3.5 mph - N/A   Partly Cloudy
8:15 PM 64.4 °F 53.6 °F 68% 29.77 in 10.0 mi WSW 3.5 mph - N/A   Partly Cloudy
8:35 PM 64.4 °F 53.6 °F 68% 29.78 in 10.0 mi West 3.5 mph - N/A   Partly Cloudy
9:15 PM 62.6 °F 51.8 °F 68% 29.80 in 10.0 mi West 3.5 mph - N/A   Clear
9:35 PM 62.6 °F 51.8 °F 68% 29.80 in 10.0 mi West 4.6 mph - N/A   Clear
9:55 PM 62.6 °F 51.8 °F 68% 29.80 in 10.0 mi West 4.6 mph - N/A   Clear
10:15 PM 60.8 °F 51.8 °F 72% 29.81 in 10.0 mi West 3.5 mph - N/A   Clear
10:35 PM 60.8 °F 51.8 °F 72% 29.81 in 10.0 mi West 3.5 mph - N/A   Clear
10:55 PM 60.8 °F 50.0 °F 68% 29.82 in 10.0 mi West 4.6 mph - N/A   Clear
11:15 PM 60.8 °F 50.0 °F 68% 29.82 in 10.0 mi West 5.8 mph - N/A   Clear
11:35 PM 59.0 °F 50.0 °F 72% 29.82 in 10.0 mi Calm Calm - N/A   Clear
11:55 PM 57.2 °F 50.0 °F 77% 29.83 in 10.0 mi Calm Calm - N/A   Clear